Change the Weather History Date:

Monday, October 8, 2012

  Actual Average (KLBT) Record (KLBT)
Temperature  
Mean Temperature 54 °F 66 °F  
Max Temperature 59 °F 78 °F 90 °F (2007)
Min Temperature 50 °F 54 °F 41 °F (2001)
Degree Days  
Heating Degree Days 10 2  
Month to date heating degree days 14  
Since 1 July heating degree days 23  
Cooling Degree Days 0 3  
Month to date cooling degree days 30  
Year to date cooling degree days 1851  
Growing Degree Days 4 (Base 50)    
Moisture  
Dew Point 52 °F    
Average Humidity 93    
Maximum Humidity 100    
Minimum Humidity 82    
Precipitation  
Precipitation 0.56 in 0.11 in 0.84 in (2003)
Month to date precipitation 1.01  
Year to date precipitation 36.20  
Sea Level Pressure  
Sea Level Pressure 30.10 in    
Wind  
Wind Speed 6 mph (NNE)    
Max Wind Speed 12 mph    
Max Gust Speed 21 mph    
Visibility 8 miles    
Events Rain    
T = Trace of Precipitation, MM = Missing Value Source: NWS Daily Summary

Daily Weather History Graph

Daily Weather History Graph

Search for Another Location

Airport or City:

Trip Planner

Search our weather history database for the weather conditions in past years. The results will help you decide how hot, cold, wet, or windy it might be!

Date:

Astronomy

Oct. 08, 2012 Rise Set
Actual Time 7:15 AM EDT 6:48 PM EDT
Civil Twilight 6:49 AM EDT 7:14 PM EDT
Nautical Twilight 6:20 AM EDT 7:43 PM EDT
Astronomical Twilight 5:51 AM EDT 8:12 PM EDT
Moon 12:10 AM EDT (10/8) 2:21 PM EDT (10/8)
Length of Visible Light 12h 24m
Length of Day
11h 33m
Waning Gibbous, 46% of the Moon is Illuminated
Oct 8
Waning Gibbous
Oct 15
New
Oct 21
First Quarter
Oct 29
Full
Nov 6
Last Quarter

Hourly Weather History & Observations

Time (EDT) Temp. Dew Point Humidity Pressure Visibility Wind Dir Wind Speed Gust Speed Precip Events Conditions
12:15 AM 59.0 °F 53.6 °F 82% 30.10 in 10.0 mi North 3.5 mph - N/A   Mostly Cloudy
12:35 AM 57.2 °F 53.6 °F 88% 30.09 in 10.0 mi NNE 4.6 mph - N/A   Mostly Cloudy
12:55 AM 57.2 °F 53.6 °F 88% 30.09 in 10.0 mi NE 6.9 mph - N/A   Mostly Cloudy
1:15 AM 57.2 °F 53.6 °F 88% 30.09 in 10.0 mi North 5.8 mph - N/A   Mostly Cloudy
1:35 AM 57.2 °F 51.8 °F 82% 30.09 in 10.0 mi NNE 5.8 mph - N/A   Mostly Cloudy
1:55 AM 57.2 °F 51.8 °F 82% 30.09 in 10.0 mi Calm Calm - N/A   Scattered Clouds
2:15 AM 57.2 °F 53.6 °F 88% 30.10 in 10.0 mi NE 3.5 mph - N/A   Scattered Clouds
2:35 AM 57.2 °F 53.6 °F 88% 30.09 in 10.0 mi NNE 6.9 mph - N/A   Scattered Clouds
2:55 AM 55.4 °F 51.8 °F 88% 30.09 in 10.0 mi North 5.8 mph - N/A   Scattered Clouds
3:15 AM 55.4 °F 51.8 °F 88% 30.10 in 10.0 mi NNE 3.5 mph - N/A   Scattered Clouds
3:35 AM 55.4 °F 51.8 °F 88% 30.09 in 10.0 mi NNE 5.8 mph - N/A   Mostly Cloudy
3:55 AM 55.4 °F 51.8 °F 88% 30.08 in 10.0 mi North 5.8 mph - N/A   Mostly Cloudy
4:15 AM 55.4 °F 51.8 °F 88% 30.09 in 10.0 mi NNE 6.9 mph - N/A   Mostly Cloudy
4:35 AM 55.4 °F 51.8 °F 88% 30.08 in 10.0 mi NE 11.5 mph - N/A   Scattered Clouds
4:55 AM 55.4 °F 51.8 °F 88% 30.09 in 10.0 mi NNE 6.9 mph - N/A   Scattered Clouds
5:15 AM 55.4 °F 51.8 °F 88% 30.09 in 10.0 mi NNE 6.9 mph - N/A   Mostly Cloudy
5:35 AM 55.4 °F 51.8 °F 88% 30.10 in 10.0 mi NNE 9.2 mph - N/A   Overcast
5:55 AM 55.4 °F 51.8 °F 88% 30.10 in 10.0 mi NE 6.9 mph - N/A   Overcast
6:15 AM 55.4 °F 51.8 °F 88% 30.11 in 10.0 mi NNE 5.8 mph 20.7 mph N/A   Overcast
6:35 AM 55.4 °F 50.0 °F 82% 30.11 in 10.0 mi NE 10.4 mph - N/A   Overcast
6:55 AM 55.4 °F 50.0 °F 82% 30.11 in 10.0 mi NE 5.8 mph - N/A   Overcast
7:15 AM 55.4 °F 51.8 °F 88% 30.13 in 10.0 mi NE 5.8 mph - N/A   Overcast
7:35 AM 55.4 °F 50.0 °F 82% 30.13 in 10.0 mi ENE 8.1 mph - N/A   Overcast
7:55 AM 55.4 °F 50.0 °F 82% 30.14 in 10.0 mi NNE 4.6 mph - N/A Rain Light Rain
8:15 AM 53.6 °F 51.8 °F 94% 30.15 in 5.0 mi North 3.5 mph - 0.02 in Rain Heavy Rain
8:35 AM 53.6 °F 51.8 °F 94% 30.14 in 4.0 mi North 5.8 mph - 0.13 in Rain Light Rain
8:55 AM 53.6 °F 51.8 °F 94% 30.15 in 10.0 mi NNE 4.6 mph - 0.13 in   Mostly Cloudy
9:15 AM 53.6 °F 51.8 °F 94% 30.16 in 10.0 mi NNE 4.6 mph - N/A   Overcast
9:35 AM 53.6 °F 51.8 °F 94% 30.17 in 10.0 mi NNE 5.8 mph - N/A   Overcast
9:55 AM 53.6 °F 51.8 °F 94% 30.15 in 7.0 mi NNE 8.1 mph - N/A   Overcast
10:15 AM 53.6 °F 51.8 °F 94% 30.15 in 7.0 mi NE 6.9 mph - N/A   Overcast
10:35 AM 53.6 °F 51.8 °F 94% 30.14 in 7.0 mi NE 9.2 mph - N/A   Overcast
10:55 AM 53.6 °F 51.8 °F 94% 30.14 in 5.0 mi NE 6.9 mph - N/A   Overcast
11:15 AM 53.6 °F 53.6 °F 100% 30.14 in 5.0 mi NE 6.9 mph - N/A   Overcast
11:35 AM 53.6 °F 53.6 °F 100% 30.13 in 4.0 mi NNE 4.6 mph - N/A   Overcast
11:55 AM 53.6 °F 53.6 °F 100% 30.13 in 3.0 mi NE 5.8 mph - N/A   Overcast
12:15 PM 53.6 °F 53.6 °F 100% 30.12 in 4.0 mi NE 9.2 mph - N/A   Overcast
12:35 PM 55.4 °F 53.6 °F 94% 30.12 in 4.0 mi NE 8.1 mph - N/A   Overcast
12:55 PM 55.4 °F 53.6 °F 94% 30.11 in 5.0 mi NE 5.8 mph - N/A   Overcast
1:15 PM 55.4 °F 53.6 °F 94% 30.10 in 7.0 mi NE 6.9 mph - N/A   Overcast
1:35 PM 55.4 °F 53.6 °F 94% 30.09 in 5.0 mi NNE 3.5 mph - N/A   Overcast
1:55 PM 55.4 °F 55.4 °F 100% 30.07 in 5.0 mi North 5.8 mph - N/A   Overcast
2:15 PM 55.4 °F 53.6 °F 94% 30.07 in 4.0 mi North 5.8 mph - N/A   Overcast
2:35 PM 55.4 °F 53.6 °F 94% 30.07 in 4.0 mi NNE 3.5 mph - N/A   Overcast
2:55 PM 55.4 °F 53.6 °F 94% 30.07 in 4.0 mi North 5.8 mph - N/A   Overcast
3:15 PM 55.4 °F 53.6 °F 94% 30.08 in 2.5 mi North 6.9 mph - N/A   Overcast
3:35 PM 53.6 °F 53.6 °F 100% 30.07 in 1.8 mi North 5.8 mph - N/A   Overcast
3:55 PM 53.6 °F 53.6 °F 100% 30.06 in 2.0 mi NNE 5.8 mph - N/A   Overcast
4:15 PM 53.6 °F 53.6 °F 100% 30.06 in 2.5 mi North 5.8 mph - N/A   Overcast
4:35 PM 53.6 °F 51.8 °F 94% 30.07 in 1.8 mi North 4.6 mph - 0.06 in Rain Heavy Rain
4:55 PM 51.8 °F 51.8 °F 100% 30.07 in 7.0 mi NNE 4.6 mph - 0.10 in Rain Light Rain
5:15 PM 51.8 °F 51.8 °F 100% 30.06 in 10.0 mi North 10.4 mph 17.3 mph 0.01 in Rain Light Rain
5:35 PM 51.8 °F 51.8 °F 100% 30.07 in 10.0 mi NNE 5.8 mph - 0.02 in Rain Light Rain
5:55 PM 51.8 °F 50.0 °F 94% 30.10 in 4.0 mi Calm Calm - 0.09 in Rain Rain
6:15 PM 50.0 °F 50.0 °F 100% 30.08 in 7.0 mi North 4.6 mph - 0.04 in Rain Heavy Rain
6:35 PM 50.0 °F 50.0 °F 100% 30.08 in 5.0 mi North 4.6 mph - 0.11 in Rain Heavy Rain
6:55 PM 50.0 °F 50.0 °F 100% 30.07 in 5.0 mi NNE 3.5 mph - 0.16 in Rain Rain
7:15 PM 50.0 °F 50.0 °F 100% 30.08 in 5.0 mi North 4.6 mph - 0.04 in Rain Rain
7:35 PM 50.0 °F 50.0 °F 100% 30.07 in 10.0 mi NNE 5.8 mph - 0.07 in Rain Rain
7:55 PM 50.0 °F 50.0 °F 100% 30.08 in 10.0 mi North 3.5 mph - 0.08 in Rain Light Rain
8:15 PM 50.0 °F 50.0 °F 100% 30.08 in 10.0 mi North 4.6 mph - N/A   Overcast
8:35 PM 50.0 °F 50.0 °F 100% 30.08 in 10.0 mi North 6.9 mph - N/A Rain Light Rain
8:55 PM 50.0 °F 50.0 °F 100% 30.09 in 10.0 mi North 5.8 mph - N/A   Overcast
9:35 PM 51.8 °F 50.0 °F 94% 30.09 in 10.0 mi North 5.8 mph - N/A   Overcast
9:55 PM 51.8 °F 50.0 °F 94% 30.10 in 10.0 mi North 5.8 mph - N/A   Overcast
10:15 PM 51.8 °F 50.0 °F 94% 30.09 in 10.0 mi North 4.6 mph - N/A   Overcast
10:35 PM 51.8 °F 50.0 °F 94% 30.10 in 10.0 mi North 5.8 mph - N/A   Overcast
10:55 PM 51.8 °F 51.8 °F 100% 30.10 in 10.0 mi North 3.5 mph - N/A   Overcast
11:15 PM 51.8 °F 51.8 °F 100% 30.11 in 10.0 mi North 4.6 mph - N/A   Overcast
11:55 PM 51.8 °F 51.8 °F 100% 30.10 in 7.0 mi North 3.5 mph - N/A   Overcast